Time,TemperatureF,DewpointF,PressureIn,WindDirection,WindDirectionDegrees,WindSpeedMPH,WindSpeedGustMPH,Humidity,HourlyPrecipIn,Conditions,Clouds,dailyrainin,SolarRadiationWatts/m^2,SoftwareType,DateUTC
2013-01-07 00:02:00,66.0,55.0,-100.00,ENE,63,6.0,21.0,68,0.00,,,0.00,0.000000,,2013-01-07 10:02:00,
2013-01-07 00:12:00,66.0,55.0,-100.00,ENE,63,6.0,21.0,68,0.00,,,0.00,0.000000,,2013-01-07 10:12:00,
2013-01-07 00:22:00,66.0,55.0,-100.00,ENE,63,6.0,21.0,68,0.00,,,0.00,0.000000,,2013-01-07 10:22:00,
2013-01-07 00:32:00,66.0,55.0,-100.00,ENE,63,6.0,21.0,68,0.00,,,0.00,0.000000,,2013-01-07 10:32:00,
2013-01-07 00:42:00,66.0,55.0,-100.00,ENE,63,6.0,21.0,68,0.00,,,0.00,0.000000,,2013-01-07 10:42:00,
2013-01-07 01:12:00,66.0,57.0,-100.00,NE,46,7.0,18.0,72,0.00,,,0.00,0.000000,,2013-01-07 11:12:00,
2013-01-07 01:22:00,66.0,57.0,-100.00,NE,46,7.0,18.0,72,0.00,,,0.00,0.000000,,2013-01-07 11:22:00,
2013-01-07 01:32:00,66.0,57.0,-100.00,NE,46,7.0,18.0,72,0.00,,,0.00,0.000000,,2013-01-07 11:32:00,
2013-01-07 01:42:00,66.0,57.0,-100.00,NE,46,7.0,18.0,72,0.00,,,0.00,0.000000,,2013-01-07 11:42:00,
2013-01-07 02:12:00,66.0,56.0,-100.00,NE,49,6.0,17.0,70,0.00,,,0.00,0.000000,,2013-01-07 12:12:00,
2013-01-07 02:22:00,66.0,56.0,-100.00,NE,49,6.0,17.0,70,0.00,,,0.00,0.000000,,2013-01-07 12:22:00,
2013-01-07 02:32:00,66.0,56.0,-100.00,NE,49,6.0,17.0,70,0.00,,,0.00,0.000000,,2013-01-07 12:32:00,
2013-01-07 02:42:00,66.0,56.0,-100.00,NE,49,6.0,17.0,70,0.00,,,0.00,0.000000,,2013-01-07 12:42:00,
2013-01-07 03:12:00,68.0,56.0,-100.00,NNE,26,8.0,20.0,66,0.00,,,0.00,0.000000,,2013-01-07 13:12:00,
2013-01-07 03:22:00,68.0,56.0,-100.00,NNE,26,8.0,20.0,66,0.00,,,0.00,0.000000,,2013-01-07 13:22:00,
2013-01-07 03:33:00,68.0,56.0,-100.00,NNE,26,8.0,20.0,66,0.00,,,0.00,0.000000,,2013-01-07 13:33:00,
2013-01-07 03:42:00,68.0,56.0,-100.00,NNE,26,8.0,20.0,66,0.00,,,0.00,0.000000,,2013-01-07 13:42:00,
2013-01-07 04:12:00,68.0,57.0,-100.00,East,80,7.0,12.0,68,0.00,,,0.00,0.000000,,2013-01-07 14:12:00,
2013-01-07 04:22:00,68.0,57.0,-100.00,East,80,7.0,12.0,68,0.00,,,0.00,0.000000,,2013-01-07 14:22:00,
2013-01-07 04:33:00,68.0,57.0,-100.00,East,80,7.0,12.0,68,0.00,,,0.00,0.000000,,2013-01-07 14:33:00,
2013-01-07 04:42:00,68.0,57.0,-100.00,East,80,7.0,12.0,68,0.00,,,0.00,0.000000,,2013-01-07 14:42:00,
2013-01-07 05:12:00,66.0,56.0,-100.00,NNE,17,5.0,14.0,71,0.00,,,0.00,0.000000,,2013-01-07 15:12:00,
2013-01-07 05:22:00,66.0,56.0,-100.00,NNE,17,5.0,14.0,71,0.00,,,0.00,0.000000,,2013-01-07 15:22:00,
2013-01-07 05:33:00,66.0,56.0,-100.00,NNE,17,5.0,14.0,71,0.00,,,0.00,0.000000,,2013-01-07 15:33:00,
2013-01-07 05:42:00,66.0,56.0,-100.00,NNE,17,5.0,14.0,71,0.00,,,0.00,0.000000,,2013-01-07 15:42:00,
2013-01-07 06:12:00,64.0,59.0,-100.00,East,93,7.0,19.0,84,0.00,,,0.00,0.000000,,2013-01-07 16:12:00,
2013-01-07 06:22:00,64.0,59.0,-100.00,East,93,7.0,19.0,84,0.00,,,0.00,0.000000,,2013-01-07 16:22:00,
2013-01-07 06:33:00,64.0,59.0,-100.00,East,93,7.0,19.0,84,0.00,,,0.00,0.000000,,2013-01-07 16:33:00,
2013-01-07 06:42:00,64.0,59.0,-100.00,East,93,7.0,19.0,84,0.00,,,0.00,0.000000,,2013-01-07 16:42:00,
2013-01-07 07:12:00,68.0,57.0,-100.00,NE,45,11.0,18.0,69,0.00,,,0.00,0.000000,,2013-01-07 17:12:00,
2013-01-07 07:22:00,68.0,57.0,-100.00,NE,45,11.0,18.0,69,0.00,,,0.00,0.000000,,2013-01-07 17:22:00,
2013-01-07 07:32:00,68.0,57.0,-100.00,NE,45,11.0,18.0,69,0.00,,,0.00,0.000000,,2013-01-07 17:32:00,
2013-01-07 07:42:00,68.0,57.0,-100.00,NE,45,11.0,18.0,69,0.00,,,0.00,0.000000,,2013-01-07 17:42:00,
2013-01-07 08:12:00,68.0,57.0,-100.00,NE,52,7.0,20.0,69,0.00,,,0.00,62.000000,,2013-01-07 18:12:00,
2013-01-07 08:23:00,68.0,57.0,-100.00,NE,52,7.0,20.0,69,0.00,,,0.00,62.000000,,2013-01-07 18:23:00,
2013-01-07 08:32:00,68.0,57.0,-100.00,NE,52,7.0,20.0,69,0.00,,,0.00,62.000000,,2013-01-07 18:32:00,
2013-01-07 08:42:00,68.0,57.0,-100.00,NE,52,7.0,20.0,69,0.00,,,0.00,62.000000,,2013-01-07 18:42:00,
2013-01-07 09:12:00,70.0,54.0,-100.00,NE,36,13.0,23.0,57,0.00,,,0.00,239.000000,,2013-01-07 19:12:00,
2013-01-07 09:22:00,70.0,54.0,-100.00,NE,36,13.0,23.0,57,0.00,,,0.00,239.000000,,2013-01-07 19:22:00,
2013-01-07 09:33:00,70.0,54.0,-100.00,NE,36,13.0,23.0,57,0.00,,,0.00,239.000000,,2013-01-07 19:33:00,
2013-01-07 09:42:00,70.0,54.0,-100.00,NE,36,13.0,23.0,57,0.00,,,0.00,239.000000,,2013-01-07 19:42:00,
2013-01-07 10:12:00,73.0,49.0,-100.00,NE,38,13.0,30.0,43,0.00,,,0.00,444.000000,,2013-01-07 20:12:00,
2013-01-07 10:22:00,73.0,49.0,-100.00,NE,38,13.0,30.0,43,0.00,,,0.00,444.000000,,2013-01-07 20:22:00,
2013-01-07 10:33:00,73.0,49.0,-100.00,NE,38,13.0,30.0,43,0.00,,,0.00,444.000000,,2013-01-07 20:33:00,
2013-01-07 10:42:00,73.0,49.0,-100.00,NE,38,13.0,30.0,43,0.00,,,0.00,444.000000,,2013-01-07 20:42:00,
2013-01-07 11:12:00,77.0,46.0,-100.00,ENE,57,11.0,20.0,33,0.00,,,0.00,613.000000,,2013-01-07 21:12:00,
2013-01-07 11:22:00,77.0,46.0,-100.00,ENE,57,11.0,20.0,33,0.00,,,0.00,613.000000,,2013-01-07 21:22:00,
2013-01-07 11:32:00,77.0,46.0,-100.00,ENE,57,11.0,20.0,33,0.00,,,0.00,613.000000,,2013-01-07 21:32:00,
2013-01-07 11:42:00,77.0,46.0,-100.00,ENE,57,11.0,20.0,33,0.00,,,0.00,613.000000,,2013-01-07 21:42:00,
2013-01-07 12:12:00,76.0,52.0,-100.00,ESE,107,12.0,21.0,44,0.00,,,0.00,725.000000,,2013-01-07 22:12:00,
2013-01-07 12:22:00,76.0,52.0,-100.00,ESE,107,12.0,21.0,44,0.00,,,0.00,725.000000,,2013-01-07 22:22:00,
2013-01-07 12:33:00,76.0,52.0,-100.00,ESE,107,12.0,21.0,44,0.00,,,0.00,725.000000,,2013-01-07 22:33:00,
2013-01-07 12:42:00,76.0,52.0,-100.00,ESE,107,12.0,21.0,44,0.00,,,0.00,725.000000,,2013-01-07 22:42:00,
2013-01-07 13:12:00,75.0,55.0,-100.00,ESE,116,14.0,25.0,50,0.00,,,0.00,774.000000,,2013-01-07 23:12:00,
2013-01-07 13:22:00,75.0,55.0,-100.00,ESE,116,14.0,25.0,50,0.00,,,0.00,774.000000,,2013-01-07 23:22:00,
2013-01-07 13:32:00,75.0,55.0,-100.00,ESE,116,14.0,25.0,50,0.00,,,0.00,774.000000,,2013-01-07 23:32:00,
2013-01-07 13:42:00,75.0,55.0,-100.00,ESE,116,14.0,25.0,50,0.00,,,0.00,774.000000,,2013-01-07 23:42:00,
2013-01-07 14:12:00,74.0,56.0,-100.00,ESE,111,9.0,21.0,53,0.00,,,0.00,727.000000,,2013-01-08 00:12:00,
2013-01-07 14:22:00,74.0,56.0,-100.00,ESE,111,9.0,21.0,53,0.00,,,0.00,727.000000,,2013-01-08 00:22:00,
2013-01-07 14:32:00,74.0,56.0,-100.00,ESE,111,9.0,21.0,53,0.00,,,0.00,727.000000,,2013-01-08 00:32:00,
2013-01-07 14:42:00,74.0,56.0,-100.00,ESE,111,9.0,21.0,53,0.00,,,0.00,727.000000,,2013-01-08 00:42:00,
2013-01-07 15:12:00,74.0,60.0,-100.00,SE,145,8.0,15.0,61,0.00,,,0.00,602.000000,,2013-01-08 01:12:00,
2013-01-07 15:22:00,74.0,60.0,-100.00,SE,145,8.0,15.0,61,0.00,,,0.00,602.000000,,2013-01-08 01:22:00,
2013-01-07 15:32:00,74.0,60.0,-100.00,SE,145,8.0,15.0,61,0.00,,,0.00,602.000000,,2013-01-08 01:32:00,
2013-01-07 15:42:00,74.0,60.0,-100.00,SE,145,8.0,15.0,61,0.00,,,0.00,602.000000,,2013-01-08 01:42:00,
2013-01-07 16:12:00,75.0,59.0,-100.00,ESE,120,8.0,23.0,57,0.00,,,0.00,487.000000,,2013-01-08 02:12:00,
2013-01-07 16:22:00,75.0,59.0,-100.00,ESE,120,8.0,23.0,57,0.00,,,0.00,487.000000,,2013-01-08 02:22:00,
2013-01-07 16:32:00,75.0,59.0,-100.00,ESE,120,8.0,23.0,57,0.00,,,0.00,487.000000,,2013-01-08 02:32:00,
2013-01-07 16:42:00,75.0,59.0,-100.00,ESE,120,8.0,23.0,57,0.00,,,0.00,487.000000,,2013-01-08 02:42:00,
2013-01-07 17:12:00,73.0,57.0,-100.00,North,349,7.0,16.0,58,0.00,,,0.00,274.000000,,2013-01-08 03:12:00,
2013-01-07 17:22:00,73.0,57.0,-100.00,North,349,7.0,16.0,58,0.00,,,0.00,274.000000,,2013-01-08 03:22:00,
2013-01-07 17:32:00,73.0,57.0,-100.00,North,349,7.0,16.0,58,0.00,,,0.00,274.000000,,2013-01-08 03:32:00,
2013-01-07 17:42:00,73.0,57.0,-100.00,North,349,7.0,16.0,58,0.00,,,0.00,274.000000,,2013-01-08 03:42:00,
2013-01-07 18:12:00,71.0,49.0,-100.00,East,99,6.0,19.0,46,0.00,,,0.00,57.000000,,2013-01-08 04:12:00,
2013-01-07 18:22:00,71.0,49.0,-100.00,East,99,6.0,19.0,46,0.00,,,0.00,57.000000,,2013-01-08 04:22:00,
2013-01-07 18:32:00,71.0,49.0,-100.00,East,99,6.0,19.0,46,0.00,,,0.00,57.000000,,2013-01-08 04:32:00,
2013-01-07 18:42:00,71.0,49.0,-100.00,East,99,6.0,19.0,46,0.00,,,0.00,57.000000,,2013-01-08 04:42:00,
2013-01-07 19:12:00,68.0,51.0,-100.00,ENE,77,8.0,18.0,55,0.00,,,0.00,2.000000,,2013-01-08 05:12:00,
2013-01-07 19:22:00,68.0,51.0,-100.00,ENE,77,8.0,18.0,55,0.00,,,0.00,2.000000,,2013-01-08 05:22:00,
2013-01-07 19:33:00,68.0,51.0,-100.00,ENE,77,8.0,18.0,55,0.00,,,0.00,2.000000,,2013-01-08 05:33:00,
2013-01-07 19:42:00,68.0,51.0,-100.00,ENE,77,8.0,18.0,55,0.00,,,0.00,2.000000,,2013-01-08 05:42:00,
2013-01-07 20:12:00,65.0,52.0,-100.00,North,11,4.0,12.0,63,0.00,,,0.00,0.000000,,2013-01-08 06:12:00,
2013-01-07 20:22:00,65.0,52.0,-100.00,North,11,4.0,12.0,63,0.00,,,0.00,0.000000,,2013-01-08 06:22:00,
2013-01-07 20:32:00,65.0,52.0,-100.00,North,11,4.0,12.0,63,0.00,,,0.00,0.000000,,2013-01-08 06:32:00,
2013-01-07 20:42:00,65.0,52.0,-100.00,North,11,4.0,12.0,63,0.00,,,0.00,0.000000,,2013-01-08 06:42:00,
2013-01-07 21:12:00,59.0,49.0,-100.00,NNE,19,4.0,10.0,70,0.00,,,0.00,0.000000,,2013-01-08 07:12:00,
2013-01-07 21:22:00,59.0,49.0,-100.00,NNE,19,4.0,10.0,70,0.00,,,0.00,0.000000,,2013-01-08 07:22:00,
2013-01-07 21:32:00,59.0,49.0,-100.00,NNE,19,4.0,10.0,70,0.00,,,0.00,0.000000,,2013-01-08 07:32:00,
2013-01-07 21:42:00,59.0,49.0,-100.00,NNE,19,4.0,10.0,70,0.00,,,0.00,0.000000,,2013-01-08 07:42:00,
2013-01-07 22:02:00,58.0,48.0,-100.00,North,9,5.0,9.0,70,0.00,,,0.00,0.000000,,2013-01-08 08:02:00,
2013-01-07 22:12:00,58.0,48.0,-100.00,North,9,5.0,9.0,70,0.00,,,0.00,0.000000,,2013-01-08 08:12:00,
2013-01-07 22:22:00,58.0,48.0,-100.00,North,9,5.0,9.0,70,0.00,,,0.00,0.000000,,2013-01-08 08:22:00,
2013-01-07 22:32:00,58.0,48.0,-100.00,North,9,5.0,9.0,70,0.00,,,0.00,0.000000,,2013-01-08 08:32:00,
2013-01-07 22:42:00,58.0,48.0,-100.00,North,9,5.0,9.0,70,0.00,,,0.00,0.000000,,2013-01-08 08:42:00,
2013-01-07 23:12:00,53.0,46.0,-100.00,North,355,6.0,9.0,77,0.00,,,0.00,0.000000,,2013-01-08 09:12:00,
2013-01-07 23:22:00,53.0,46.0,-100.00,North,355,6.0,9.0,77,0.00,,,0.00,0.000000,,2013-01-08 09:22:00,
2013-01-07 23:32:00,53.0,46.0,-100.00,North,355,6.0,9.0,77,0.00,,,0.00,0.000000,,2013-01-08 09:32:00,
2013-01-07 23:42:00,53.0,46.0,-100.00,North,355,6.0,9.0,77,0.00,,,0.00,0.000000,,2013-01-08 09:42:00,